Weather reports worldwide

Advertisment
St.Peter-Ording, Germany (10028): temperature & dewpoint: 16.01.2019 04:00:00 - 22.01.2019 04:00:00 (CET)St.Peter-Ording, Germany (10028): temperature 5cm & temperature -5cm: 16.01.2019 04:00:00 - 22.01.2019 04:00:00 (CET)St.Peter-Ording, Germany (10028): temperature -20cm & temperature -100cm: 16.01.2019 04:00:00 - 22.01.2019 04:00:00 (CET)St.Peter-Ording, Germany (10028): wind speed & gusts: 16.01.2019 04:00:00 - 22.01.2019 04:00:00 (CET)St.Peter-Ording, Germany (10028): wind direction: 16.01.2019 04:00:00 - 22.01.2019 04:00:00 (CET)St.Peter-Ording, Germany (10028): reduced air pressure: 16.01.2019 04:00:00 - 22.01.2019 04:00:00 (CET)St.Peter-Ording, Germany (10028): visibility: 16.01.2019 04:00:00 - 22.01.2019 04:00:00 (CET)St.Peter-Ording, Germany (10028): sunshine duration: 16.01.2019 04:00:00 - 22.01.2019 04:00:00 (CET)St.Peter-Ording, Germany (10028): precipitation: 16.01.2019 04:00:00 - 22.01.2019 04:00:00 (CET)
Date & Time tt [°C] td [°C] tt 5cm [°C] tt -5cm [°C] tt -20cm [°C] tt -100cm [°C] ff [km/h] ff [kn] fx [km/h] fx [kn] dd ppp [hPa] vv [km] sd [min] rr [mm]
22.01.2019 04:00:00 1,1 0,6 0,8 0,1 1,1 5,8 19 11 31 17 S 1012,2 2,9 0 0,0
22.01.2019 03:00:00 1,6 1,6 1,4 0,1 1,1 5,8 19 11 31 17 SSW 1013,0 0,7 0 0,0
22.01.2019 02:00:00 1,6 1,3 1,4 0,1 1,0 5,8 19 10 28 15 SSW 1013,7 0,3 0 0,0
22.01.2019 01:00:00 2,8 2,1 2,2 0,1 1,0 5,8 14 8 28 15 S 1014,4 2,7 0 0,0
22.01.2019 00:00:00 2,7 1,9 1,6 0,0 1,0 5,8 21 12 32 18 SW 1014,9 4,2 0 0,0
21.01.2019 23:00:00 2,9 1,7 1,7 0,0 1,0 5,8 19 10 25 13 SW 1015,5 17 0 0,0
21.01.2019 22:00:00 2,7 2,3 1,5 0,0 1,0 5,9 16 9 22 12 SW 1015,8 2,7 0 0,0
21.01.2019 21:00:00 2,6 1,7 -0,1 0,0 1,0 5,9 10 5 15 8 W 1016,2 24 0 0,0
21.01.2019 20:00:00 2,1 1,2 0,4 0,0 1,0 5,9 13 7 16 9 SW 1016,4 21 0 0,0
21.01.2019 19:00:00 2,0 0,7 0,0 0,0 1,0 5,9 16 8 19 10 W 1016,7 32 0 0,0
21.01.2019 18:00:00 2,3 1,5 -0,4 0,1 1,0 5,9 10 6 19 10 NW 1017,0 24 0 0,0
21.01.2019 17:00:00 3,2 1,8 1,6 0,0 1,0 5,9 17 9 22 12 W 1017,3 23 0 0,0
21.01.2019 16:00:00 3,8 1,0 2,6 0,3 1,0 5,9 18 10 27 14 W 1017,4 35 37 0,0
21.01.2019 15:00:00 4,9 2,9 5,2 1,0 1,0 5,9 19 10 23 12 W 1017,6 25 54 0,0
21.01.2019 14:00:00 5,0 2,4 5,2 0,6 1,0 5,9 16 9 23 13 W 1018,1 23 60 0,0
21.01.2019 13:00:00 5,3 3,3 5,4 0,1 1,0 6,0 20 11 31 17 W 1018,6 18 35 0,0
21.01.2019 12:00:00 4,4 3,2 3,9 0,0 1,0 6,0 26 14 33 18 W 1018,9 18 44 0,0
21.01.2019 11:00:00 4,0 2,7 3,0 0,0 1,0 6,0 27 15 39 21 W 1019,3 20 48 0,0
21.01.2019 10:00:00 3,1 2,1 2,1 -0,1 1,0 6,0 32 17 40 22 WSW 1019,3 4,7 0 0,0
21.01.2019 09:00:00 2,6 1,3 1,9 -0,1 1,0 6,0 30 16 46 25 WSW 1019,5 8 0 0,0
21.01.2019 08:00:00 1,6 0,2 1,0 -0,2 1,0 6,0 29 16 39 21 SW 1019,6 7 0 0,0
21.01.2019 07:00:00 1,5 -0,9 0,8 -0,5 1,0 6,0 29 16 38 21 SW 1019,8 12 0 0,0
21.01.2019 06:00:00 1,1 -1,3 0,2 -0,9 1,0 6,0 25 14 35 19 SW 1020,2 13 0 0,0
21.01.2019 05:00:00 0,6 -2,1 -0,8 -1,3 1,0 6,0 24 13 34 18 SW 1020,8 15 0 0,0
21.01.2019 04:00:00 0,4 -2,4 -0,9 -1,4 1,1 6,1 23 12 30 16 SSW 1021,0 14 0 0,0
21.01.2019 03:00:00 0,8 -1,8 -0,7 -1,4 1,1 6,1 21 11 27 14 SSW 1021,6 15 0 0,0
21.01.2019 02:00:00 0,8 -1,6 -0,8 -1,4 1,1 6,1 18 10 22 12 SW 1021,9 17 0 0,0
21.01.2019 01:00:00 0,3 -2,2 -1,6 -1,4 1,1 6,1 16 9 20 11 SW 1022,5 18 0 0,0
21.01.2019 00:00:00 0,5 -2,8 -1,4 -1,2 1,2 6,1 15 8 19 10 SW 1022,4 30 0 0,0
20.01.2019 23:00:00 0,1 -3,0 -2,3 -1,0 1,2 6,1 13 7 16 9 SW 1022,3 32 0 0,0
20.01.2019 22:00:00 0,3 -3,1 -1,8 -0,7 1,2 6,1 11 6 14 8 SSW 1022,2 38 0 0,0
20.01.2019 21:00:00 0,6 -1,9 -1,0 -0,5 1,2 6,1 11 6 16 8 SSW 1021,9 18 0 0,0
20.01.2019 20:00:00 0,3 -1,6 -1,3 -0,5 1,2 6,2 10 5 13 7 S 1021,7 14 0 0,0
20.01.2019 19:00:00 -0,2 -1,7 -2,6 -0,2 1,2 6,2 10 6 14 8 S 1021,3 14 0 0,0
20.01.2019 18:00:00 -0,5 -1,9 -3,6 0,0 1,2 6,2 11 6 14 7 S 1021,0 14 0 0,0
20.01.2019 17:00:00 -0,3 -2,1 -1,8 0,0 1,2 6,2 8 5 11 6 S 1020,6 15 37 0,0
20.01.2019 16:00:00 1,2 -1,8 0,5 0,0 1,2 6,2 6 3 9 5 S 1020,5 16 16 0,0
20.01.2019 15:00:00 1,4 -1,4 0,2 0,0 1,2 6,2 7 4 11 6 S 1020,3 15 0 0,0
20.01.2019 14:00:00 1,6 -1,3 0,7 0,0 1,2 6,2 8 5 13 7 SSE 1020,1 16 44 0,0
20.01.2019 13:00:00 1,3 -0,8 0,9 -0,1 1,2 6,2 6 3 14 7 S 1020,2 10 6 0,0
20.01.2019 12:00:00 0,7 -0,9 0,1 -0,1 1,2 6,3 9 5 14 7 SSE 1020,0 10 0 0,0
20.01.2019 11:00:00 -0,7 -1,7 -0,8 -0,3 1,3 6,3 6 3 8 5 ESE 1019,9 6 0 0,0
20.01.2019 10:00:00 -1,4 -2,1 -2,0 -0,7 1,3 6,3 4 2 12 7 SE 1019,3 5 0 0,0
20.01.2019 09:00:00 -1,6 -2,3 -2,6 -1,1 1,3 6,3 7 4 11 6 SE 1018,7 6 0 0,0
20.01.2019 08:00:00 -2,5 -3,1 -4,5 -1,4 1,3 6,3 6 4 11 6 SE 1018,2 5 0 0,0
20.01.2019 07:00:00 -2,6 -3,3 -5,7 -1,3 1,4 6,3 8 4 14 8 SE 1017,8 7 0 0,0
20.01.2019 06:00:00 -2,2 -3,0 -3,9 -1,1 1,4 6,3 8 4 13 7 SE 1017,8 7 0 0,0
20.01.2019 05:00:00 -1,9 -2,9 -3,3 -1,1 1,5 6,3 8 4 12 7 SE 1017,7 10 0 0,0
20.01.2019 04:00:00 -2,5 -3,5 -4,0 -1,0 1,5 6,4 9 5 12 7 SE 1017,8 8 0 0,0
20.01.2019 03:00:00 -2,1 -3,1 -4,1 -0,9 1,5 6,4 8 4 14 8 ESE 1017,8 7 0 0,0
20.01.2019 02:00:00 -0,5 -2,4 -2,6 -0,6 1,6 6,4 9 5 16 8 SE 1017,8 19 0 0,0
20.01.2019 01:00:00 -1,1 -2,7 -3,3 -0,6 1,6 6,4 8 4 16 8 SSE 1017,9 22 0 0,0
20.01.2019 00:00:00 -1,0 -2,3 -3,0 -0,5 1,6 6,4 11 6 17 9 SSE 1017,8 21 0 0,0
19.01.2019 23:00:00 -1,9 -2,9 -5,9 -0,2 1,7 6,4 8 4 13 7 SE 1017,9 14 0 0,0
19.01.2019 22:00:00 -1,1 -2,5 -4,3 0,0 1,7 6,4 10 6 16 9 SSE 1017,7 18 0 0,0
19.01.2019 21:00:00 -0,8 -2,5 -2,5 0,1 1,7 6,4 11 6 20 11 SSE 1017,8 15 0 0,0
19.01.2019 20:00:00 -0,8 -2,8 -2,4 0,2 1,8 6,5 11 6 17 9 SE 1017,9 16 0 0,0
19.01.2019 19:00:00 -0,5 -2,9 -2,3 0,3 1,8 6,5 10 6 18 10 SE 1017,8 20 0 0,0
19.01.2019 18:00:00 -0,2 -2,8 -2,1 0,3 1,8 6,5 11 6 16 9 SE 1017,7 24 0 0,0
19.01.2019 17:00:00 0,3 -2,8 -1,5 0,3 1,8 6,5 11 6 17 9 SE 1017,7 22 34 0,0
19.01.2019 16:00:00 1,7 -2,4 0,9 0,4 1,8 6,5 9 5 17 9 SSE 1017,8 25 60 0,0
19.01.2019 15:00:00 2,4 -1,8 1,7 0,4 1,8 6,5 10 5 20 11 S 1018,2 24 60 0,0
19.01.2019 14:00:00 2,4 -1,6 1,9 0,2 1,8 6,5 14 8 22 12 SSW 1018,6 25 53 0,0
19.01.2019 13:00:00 2,5 -1,2 2,0 0,2 1,8 6,6 15 8 23 12 SSW 1019,0 18 60 0,0
19.01.2019 12:00:00 2,6 -0,9 1,7 0,2 1,9 6,6 16 9 23 12 SSW 1019,4 16 60 0,0
19.01.2019 11:00:00 2,3 0,2 0,7 0,2 1,9 6,6 13 7 20 11 SSW 1019,3 8 60 0,0
19.01.2019 10:00:00 1,6 -0,9 -0,1 0,1 1,9 6,6 14 8 21 11 SSW 1019,1 11 44 0,0
19.01.2019 09:00:00 1,2 -1,4 -0,8 0,2 1,9 6,6 13 7 18 10 SSW 1018,8 24 0 0,0
19.01.2019 08:00:00 1,1 -0,4 -0,7 0,2 2,0 6,6 11 6 16 9 SSW 1018,5 18 0 0,0
19.01.2019 07:00:00 1,6 0,3 -0,1 0,3 2,0 6,6 13 7 19 10 SW 1018,3 16 0 0,0
19.01.2019 06:00:00 2,1 1,2 0,7 0,3 2,0 6,7 14 8 22 12 SW 1018,4 10 0 0,0
19.01.2019 05:00:00 2,5 1,8 1,3 0,3 2,0 6,7 17 9 23 13 WSW 1018,5 7 0 0,0
19.01.2019 04:00:00 2,8 2,1 1,0 0,3 2,0 6,7 17 9 23 12 WSW 1018,6 8 0 0,0
19.01.2019 03:00:00 2,7 1,9 1,0 0,4 2,1 6,7 16 8 24 13 WSW 1018,8 9 0 0,0
19.01.2019 02:00:00 2,4 1,8 0,0 0,4 2,1 6,7 13 7 18 10 SW 1018,8 29 0 0,0
19.01.2019 01:00:00 3,0 2,4 1,2 0,4 2,1 6,7 14 8 21 12 SW 1018,9 12 0 0,0
19.01.2019 00:00:00 2,6 1,5 0,4 0,4 2,2 6,7 13 7 20 11 SW 1018,8 28 0 0,0
18.01.2019 23:00:00 2,7 1,1 0,6 0,4 2,2 6,8 14 8 23 13 WSW 1018,6 30 0 0,0
18.01.2019 22:00:00 3,2 1,4 1,6 0,4 2,2 6,8 19 10 26 14 W 1018,5 35 0 0,0
18.01.2019 21:00:00 2,5 1,5 -0,4 0,5 2,3 6,8 9 5 15 8 SW 1018,2 43 0 0,0
18.01.2019 20:00:00 1,2 0,1 -0,7 0,5 2,3 6,8 5 3 21 11 WNW 1018,1 24 0 0,0
18.01.2019 19:00:00 2,8 0,8 1,0 0,5 2,4 6,8 16 9 22 12 W 1017,7 36 0 0,0
18.01.2019 18:00:00 2,7 1,3 0,3 0,6 2,5 6,8 13 7 20 11 WSW 1017,7 33 0 0,0
18.01.2019 17:00:00 2,6 0,8 0,7 0,7 2,5 6,8 19 10 23 13 WSW 1017,7 45 0 0,0
18.01.2019 16:00:00 3,1 0,9 1,4 1,8 2,4 6,8 12 6 16 9 W 1017,4 40 54 0,0
18.01.2019 15:00:00 3,9 1,5 3,7 2,4 2,3 6,9 14 8 21 11 W 1017,1 41 60 0,0
18.01.2019 14:00:00 4,0 1,6 4,4 1,1 2,2 6,9 13 7 18 10 W 1016,9 40 60 0,0
18.01.2019 13:00:00 3,8 1,7 4,0 0,1 2,3 6,9 11 6 16 8 WSW 1016,8 38 51 0,0
18.01.2019 12:00:00 3,1 1,0 2,7 0,1 2,4 6,9 8 4 13 7 NW 1016,6 44 12 0,0
18.01.2019 11:00:00 1,0 0,5 0,6 0,1 2,4 6,9 16 9 46 25 N 1016,3 26 32 0,9
18.01.2019 10:00:00 3,2 1,3 1,6 0,1 2,5 6,9 18 10 23 13 W 1015,3 31 36 0,0
18.01.2019 09:00:00 0,6 -0,8 -1,5 0,1 2,5 6,9 3 1 19 10 N 1014,8 35 0 0,0
18.01.2019 08:00:00 1,5 -0,3 0,2 0,1 2,6 6,9 11 6 26 14 NNW 1014,1 8 0 0,0
18.01.2019 07:00:00 1,8 -1,3 1,0 0,1 2,7 6,9 13 7 19 10 SSW 1013,6 21 0 0,0
18.01.2019 06:00:00 0,4 -3,7 -2,3 0,0 2,8 6,9 12 7 15 8 S 1013,3 34 0 0,0
18.01.2019 05:00:00 -2,2 -4,6 -5,9 0,2 3,0 6,9 0 0 6 3 N 1012,9 62 0 0,0
18.01.2019 04:00:00 -1,6 -4,5 -5,1 0,3 3,1 6,9 5 3 17 9 N 1012,4 64 0 0,0
18.01.2019 03:00:00 0,6 -4,6 -1,9 0,5 3,2 6,9 15 8 27 15 N 1011,8 66 0 0,0
18.01.2019 02:00:00 1,3 -4,9 -0,7 0,6 3,3 6,9 24 13 38 21 N 1010,9 57 0 0,0
18.01.2019 01:00:00 1,3 -5,8 -0,4 0,7 3,5 6,9 29 16 41 22 N 1009,8 54 0 0,0
18.01.2019 00:00:00 1,3 -4,3 -0,3 0,8 3,7 6,9 29 16 46 25 N 1008,7 47 0 0,0
17.01.2019 23:00:00 1,4 -2,7 0,0 0,9 3,9 6,9 34 19 50 27 N 1007,4 44 0 0,0
17.01.2019 22:00:00 0,8 -2,8 -0,5 1,1 4,1 6,9 28 15 41 22 N 1006,1 59 0 0,0
17.01.2019 21:00:00 0,3 -1,8 0,0 1,6 4,4 6,9 32 17 49 27 N 1004,4 47 0 0,0
17.01.2019 20:00:00 0,2 -1,5 0,3 2,1 4,5 6,9 37 20 66 35 N 1002,2 5 0 0,0
17.01.2019 19:00:00 1,6 -0,2 1,5 2,7 4,7 6,9 48 26 67 36 N 999,0 34 0 0,0
17.01.2019 18:00:00 3,4 -0,3 2,6 3,1 4,9 6,9 41 22 58 31 NW 997,9 26 0 0,0
17.01.2019 17:00:00 2,6 1,3 2,3 3,5 5,0 6,9 31 17 47 25 WNW 997,2 31 0 0,0
17.01.2019 16:00:00 3,2 1,4 2,8 4,2 5,0 6,9 29 16 57 31 WNW 996,4 36 3 0,0
17.01.2019 15:00:00 4,1 0,6 4,2 5,6 4,9 6,9 34 18 59 32 WNW 995,6 46 38 0,0
17.01.2019 14:00:00 4,4 2,7 4,2 5,0 4,9 6,9 33 18 50 27 WNW 995,0 29 2 0,5
17.01.2019 13:00:00 4,0 2,9 3,9 4,8 4,8 6,9 29 16 47 25 WNW 994,4 6 0 0,0
17.01.2019 12:00:00 4,9 3,1 5,1 4,5 4,7 6,9 39 21 57 31 W 993,9 17 40 0,0
17.01.2019 11:00:00 4,8 2,4 4,2 4,1 4,7 6,9 40 22 64 35 W 993,7 23 7 0,1
17.01.2019 10:00:00 5,1 2,9 4,3 4,1 4,7 6,9 46 25 66 35 W 993,2 17 1 0,0
17.01.2019 09:00:00 5,0 3,0 4,1 3,7 4,7 6,9 48 26 61 33 WSW 992,8 14 0 0,0
17.01.2019 08:00:00 5,2 2,5 4,4 3,2 4,8 6,9 48 26 63 34 WSW 992,9 18 0 0,0
17.01.2019 07:00:00 5,2 2,9 4,5 3,4 4,9 6,9 45 24 54 29 WSW 993,1 17 0 0,0
17.01.2019 06:00:00 5,1 2,8 3,7 3,4 5,1 6,9 40 22 53 29 WSW 993,2 16 0 0,0
17.01.2019 05:00:00 4,7 3,5 3,7 3,4 5,2 6,9 33 18 51 28 WSW 993,5 13 0 0,0
17.01.2019 04:00:00 4,9 2,4 3,7 3,8 5,3 6,9 43 23 53 28 W 993,9 19 0 0,0
17.01.2019 03:00:00 4,9 3,0 4,2 4,4 5,4 6,9 41 22 52 28 WSW 993,7 21 0 0,0
17.01.2019 02:00:00 4,9 3,7 4,4 4,6 5,5 6,9 29 16 41 22 WSW 993,9 22 0 0,1
17.01.2019 01:00:00 4,9 3,9 4,4 4,8 5,6 6,9 29 16 39 21 WSW 994,3 17 0 0,2
17.01.2019 00:00:00 4,9 3,6 4,4 4,9 5,6 6,9 29 16 69 37 W 994,6 18 0 0,3
16.01.2019 23:00:00 5,1 4,1 4,9 5,1 5,7 6,9 47 25 66 35 SW 994,3 4,8 0 0,0
16.01.2019 22:00:00 5,0 4,2 4,8 5,2 5,7 6,9 47 26 67 36 SW 994,9 5 0 0,1
16.01.2019 21:00:00 5,0 4,5 4,9 5,3 5,8 6,8 46 25 62 33 SW 995,7 2,3 0 0,2
16.01.2019 20:00:00 5,3 4,7 5,2 5,4 5,8 6,8 46 25 66 36 SW 996,3 2,5 0 0,0
16.01.2019 19:00:00 5,3 4,9 5,3 5,6 5,8 6,8 41 22 61 33 SW 997,1 2,0 0 0,0
16.01.2019 18:00:00 5,7 5,1 5,5 5,7 5,9 6,8 45 25 63 34 SW 997,9 5 0 0,1
16.01.2019 17:00:00 5,7 5,2 5,5 5,8 5,9 6,8 46 25 63 34 SW 998,8 4,6 0 0,2
16.01.2019 16:00:00 5,9 5,5 5,7 6,1 5,9 6,8 46 25 68 37 SW 999,2 4,2 0 0,0
16.01.2019 15:00:00 6,1 5,5 6,0 6,2 5,8 6,8 47 25 68 37 WSW 999,6 6 0 0,1
16.01.2019 14:00:00 6,2 5,9 6,2 6,3 5,8 6,8 46 25 64 34 SW 1000,3 4,2 0 0,2
16.01.2019 13:00:00 6,2 5,9 6,2 6,3 5,7 6,8 45 24 59 32 SW 1000,8 1,9 0 0,0
16.01.2019 12:00:00 6,3 5,5 6,5 6,2 5,6 6,8 43 23 58 32 SW 1001,6 10 0 0,0
16.01.2019 11:00:00 6,4 5,2 6,4 6,0 5,6 6,8 37 20 48 26 SW 1002,4 13 0 0,0
16.01.2019 10:00:00 6,2 5,3 6,3 5,8 5,5 6,8 34 19 45 24 WSW 1003,1 10 0 0,0
16.01.2019 09:00:00 6,1 5,4 6,1 5,6 5,5 6,8 35 19 44 24 SW 1003,5 8 0 0,0
16.01.2019 08:00:00 6,1 5,4 6,0 5,5 5,5 6,8 34 18 47 25 WSW 1003,6 7 0 0,0
16.01.2019 07:00:00 6,1 5,4 6,0 5,5 5,5 6,8 33 18 45 24 WSW 1004,0 7 0 0,0
16.01.2019 06:00:00 6,0 5,4 5,8 5,5 5,5 6,8 32 17 49 26 WSW 1004,5 6 0 0,0
16.01.2019 05:00:00 6,1 5,4 6,0 5,5 5,5 6,8 39 21 49 26 WSW 1005,1 7 0 0,0
16.01.2019 04:00:00 6,0 5,3 5,9 5,5 5,5 6,8 41 22 51 28 WSW 1005,7 6 0 0,0

tt = temperature
td = dewpoint
tt 5cm = temperature 5cm
tt -5cm = temperature -5cm
tt -20cm = temperature -20cm
tt -100cm = temperature -100cm
ff = wind speed
fx = gusts
dd = wind direction
ppp = reduced air pressure
vv = visibility
sd = sunshine duration
rr = precipitation

Next stations